QPF
0.01 0.01 0.01 0.01 0.01 0.00 0.00 0.01 0.01 0.02 0.02 0.03 0.03 0.04 0.04 0.04 0.04 0.04 0.04 0.04 0.03 0.03 0.03 0.02 0.02 0.02 0.02 0.02 0.02 0.02 0.03 0.04 0.05 0.05 0.04 0.04 0.03 0.03 0.02 0.01 0.01 0.00 0.00 0.00
0.01 0.01 0.01 0.01 0.01 0.00 0.00 0.01 0.02 0.02 0.03 0.04 0.05 0.05 0.06 0.08 0.08 0.07 0.07 0.07 0.07 0.05 0.04 0.04 0.02 0.02 0.01 0.01 0.01 0.01 0.02 0.02 0.03 0.02 0.02 0.01 0.01 0.01 0.00 0.00 0.00 0.00 0.00 0.00
0.02 0.01 0.01 0.01 0.01 0.00 0.00 0.01 0.02 0.04 0.04 0.04 0.07 0.09 0.11 0.12 0.11 0.11 0.11 0.10 0.09 0.08 0.06 0.05 0.03 0.02 0.02 0.02 0.01 0.01 0.01 0.01 0.01 0.01 0.01 0.00 0.00 0.00 0.00 0.00 0.00 0.00 0.00 0.00
0.01 0.01 0.02 0.01 0.00 0.00 0.00 0.01 0.01 0.02 0.03 0.04 0.05 0.08 0.12 0.15 0.15 0.15 0.13 0.11 0.10 0.09 0.07 0.05 0.03 0.03 0.02 0.01 0.01 0.01 0.01 0.01 0.00 0.00 0.00 0.00 0.00 0.00 0.00 0.00 0.00 0.00 0.00 0.01
0.01 0.01 0.01 0.01 0.00 0.00 0.01 0.01 0.01 0.02 0.02 0.04 0.05 0.07 0.13 0.17 0.21 0.21 0.19 0.17 0.14 0.10 0.07 0.06 0.04 0.03 0.02 0.01 0.01 0.01 0.02 0.01 0.01 0.01 0.01 0.01 0.01 0.01 0.01 0.01 0.01 0.00 0.00 0.01
0.00 0.01 0.01 0.01 0.00 0.00 0.01 0.03 0.01 0.01 0.02 0.02 0.05 0.07 0.10 0.10 0.10 0.11 0.13 0.13 0.11 0.09 0.07 0.05 0.03 0.02 0.01 0.01 0.01 0.01 0.01 0.01 0.01 0.01 0.01 0.01 0.01 0.01 0.01 0.01 0.01 0.01 0.00 0.01
0.00 0.00 0.01 0.00 0.00 0.01 0.03 0.03 0.02 0.02 0.02 0.03 0.06 0.09 0.09 0.08 0.09 0.08 0.07 0.07 0.07 0.05 0.04 0.03 0.01 0.01 0.01 0.01 0.01 0.01 0.01 0.01 0.01 0.01 0.01 0.01 0.01 0.01 0.01 0.01 0.01 0.01 0.01 0.01
0.00 0.00 0.00 0.00 0.00 0.01 0.02 0.02 0.01 0.01 0.02 0.03 0.04 0.06 0.08 0.08 0.08 0.07 0.05 0.04 0.04 0.03 0.02 0.01 0.01 0.01 0.01 0.01 0.01 0.01 0.01 0.01 0.01 0.01 0.01 0.00 0.01 0.02 0.02 0.02 0.02 0.02 0.02 0.02
0.00 0.00 0.00 0.00 0.00 0.00 0.01 0.01 0.01 0.02 0.01 0.01 0.01 0.02 0.03 0.04 0.04 0.03 0.03 0.03 0.02 0.02 0.01 0.01 0.01 0.01 0.02 0.01 0.01 0.01 0.01 0.01 0.01 0.01 0.01 0.01 0.01 0.02 0.02 0.02 0.02 0.01 0.01 0.01
0.00 0.00 0.00 0.00 0.00 0.00 0.00 0.01 0.02 0.02 0.01 0.00 0.01 0.01 0.01 0.02 0.02 0.02 0.02 0.02 0.02 0.02 0.02 0.01 0.01 0.01 0.01 0.01 0.01 0.01 0.01 0.01 0.02 0.02 0.01 0.01 0.01 0.00 0.01 0.01 0.01 0.01 0.01 0.01
0.00 0.00 0.00 0.00 0.00 0.00 0.00 0.00 0.00 0.00 0.00 0.00 0.01 0.02 0.02 0.02 0.02 0.02 0.02 0.01 0.01 0.01 0.01 0.01 0.01 0.00 0.00 0.00 0.00 0.01 0.01 0.01 0.01 0.01 0.01 0.01 0.01 0.00 0.00 0.01 0.00 0.00 0.00 0.01
0.00 0.00 0.00 0.00 0.00 0.00 0.00 0.00 0.00 0.00 0.00 0.00 0.01 0.01 0.01 0.01 0.01 0.01 0.01 0.00 0.00 0.00 0.00 0.00 0.00 0.00 0.00 0.00 0.00 0.01 0.01 0.00 0.00 0.00 0.00 0.00 0.01 0.01 0.00 0.00 0.00 0.00 0.00 0.00
0.00 0.00 0.00 0.00 0.00 0.00 0.00 0.00 0.00 0.00 0.00 0.00 0.00 0.00 0.00 0.00 0.00 0.00 0.00 0.00 0.00 0.00 0.00 0.00 0.00 0.00 0.00 0.00 0.00 0.00 0.01 0.00 0.00 0.00 0.00 0.00 0.01 0.01 0.02 0.01 0.00 0.00 0.00 0.00
0.00 0.00 0.00 0.00 0.00 0.00 0.00 0.00 0.00 0.00 0.00 0.00 0.00 0.00 0.00 0.00 0.00 0.00 0.00 0.00 0.00 0.00 0.00 0.00 0.00 0.00 0.00 0.00 0.00 0.00 0.00 0.00 0.00 0.00 0.00 0.01 0.00 0.01 0.01 0.02 0.02 0.02 0.01 0.00
0.00 0.00 0.00 0.00 0.00 0.00 0.00 0.00 0.00 0.00 0.00 0.00 0.00 0.00 0.00 0.00 0.00 0.00 0.00 0.00 0.00 0.00 0.00 0.00 0.00 0.00 0.00 0.00 0.00 0.00 0.00 0.00 0.00 0.00 0.00 0.01 0.00 0.00 0.01 0.01 0.02 0.02 0.02 0.02
0.00 0.00 0.00 0.00 0.00 0.00 0.00 0.00 0.00 0.00 0.00 0.00 0.00 0.00 0.00 0.00 0.00 0.00 0.00 0.00 0.00 0.00 0.00 0.00 0.00 0.00 0.00 0.00 0.00 0.00 0.00 0.00 0.00 0.00 0.00 0.00 0.01 0.01 0.01 0.01 0.02 0.02 0.02 0.02
0.00 0.00 0.00 0.00 0.00 0.00 0.00 0.00 0.00 0.00 0.00 0.00 0.00 0.00 0.00 0.00 0.00 0.00 0.00 0.00 0.00 0.00 0.00 0.00 0.00 0.00 0.00 0.00 0.00 0.00 0.00 0.00 0.00 0.00 0.00 0.01 0.01 0.00 0.00 0.01 0.01 0.01 0.01 0.00
0.00 0.00 0.00 0.00 0.00 0.00 0.00 0.00 0.00 0.00 0.00 0.00 0.00 0.00 0.00 0.00 0.00 0.00 0.00 0.00 0.00 0.00 0.00 0.00 0.00 0.00 0.00 0.00 0.00 0.00 0.00 0.00 0.00 0.00 0.01 0.01 0.00 0.00 0.00 0.01 0.01 0.01 0.02 0.01
0.00 0.00 0.00 0.00 0.00 0.00 0.00 0.00 0.00 0.00 0.00 0.00 0.00 0.00 0.00 0.00 0.00 0.00 0.00 0.00 0.00 0.00 0.00 0.00 0.00 0.00 0.00 0.00 0.00 0.00 0.00 0.00 0.00 0.00 0.00 0.00 0.00 0.00 0.00 0.01 0.01 0.01 0.01 0.01
0.00 0.00 0.00 0.00 0.00 0.00 0.00 0.00 0.00 0.00 0.00 0.00 0.00 0.00 0.00 0.00 0.00 0.00 0.00 0.00 0.00 0.00 0.00 0.00 0.00 0.00 0.00 0.00 0.00 0.00 0.00 0.00 0.00 0.00 0.00 0.00 0.00 0.00 0.00 0.00 0.01 0.01 0.01 0.01
0.00 0.00 0.00 0.00 0.00 0.00 0.00 0.00 0.00 0.00 0.00 0.00 0.00 0.00 0.00 0.00 0.00 0.00 0.00 0.00 0.00 0.00 0.00 0.00 0.00 0.00 0.00 0.00 0.00 0.00 0.00 0.00 0.00 0.00 0.00 0.00 0.00 0.00 0.00 0.00 0.00 0.00 0.00 0.01
0.00 0.00 0.00 0.00 0.00 0.00 0.00 0.00 0.00 0.00 0.00 0.00 0.00 0.00 0.00 0.00 0.00 0.00 0.00 0.00 0.00 0.00 0.00 0.00 0.00 0.00 0.00 0.00 0.00 0.00 0.00 0.00 0.00 0.00 0.00 0.00 0.00 0.00 0.00 0.00 0.00 0.00 0.00 0.00
0.00 0.00 0.00 0.00 0.00 0.00 0.00 0.00 0.00 0.00 0.00 0.00 0.00 0.00 0.00 0.00 0.00 0.00 0.00 0.00 0.00 0.00 0.00 0.00 0.00 0.00 0.00 0.00 0.00 0.00 0.00 0.00 0.00 0.00 0.00 0.00 0.00 0.00 0.00 0.00 0.00 0.00 0.00 0.00
0.00 0.00 0.00 0.00 0.00 0.00 0.00 0.00 0.00 0.00 0.00 0.00 0.00 0.00 0.00 0.00 0.00 0.00 0.00 0.00 0.00 0.00 0.00 0.00 0.00 0.00 0.00 0.00 0.00 0.00 0.00 0.00 0.00 0.00 0.00 0.00 0.00 0.00 0.00 0.00 0.00 0.00 0.00 0.00
0.00 0.00 0.00 0.00 0.00 0.00 0.00 0.00 0.00 0.00 0.00 0.00 0.00 0.00 0.00 0.00 0.00 0.00 0.00 0.00 0.00 0.00 0.00 0.00 0.00 0.00 0.00 0.00 0.00 0.00 0.00 0.00 0.00 0.00 0.00 0.00 0.00 0.00 0.00 0.00 0.00 0.00 0.00 0.00
0.00 0.00 0.00 0.00 0.00 0.00 0.00 0.00 0.00 0.00 0.00 0.00 0.00 0.00 0.00 0.00 0.00 0.00 0.00 0.00 0.00 0.00 0.00 0.00 0.00 0.00 0.00 0.00 0.00 0.00 0.00 0.00 0.00 0.00 0.00 0.00 0.00 0.00 0.00 0.00 0.00 0.00 0.00 0.00
0.00 0.00 0.00 0.00 0.00 0.00 0.00 0.00 0.00 0.00 0.00 0.00 0.00 0.00 0.00 0.00 0.00 0.00 0.00 0.00 0.00 0.00 0.00 0.00 0.00 0.00 0.00 0.00 0.00 0.00 0.00 0.00 0.00 0.00 0.00 0.00 0.00 0.00 0.00 0.00 0.00 0.00 0.00 0.00
MSLP
1011.37 1011.39 1011.39 1011.38 1011.40 1011.47 1011.62 1011.88 1012.26 1012.77 1013.39 1014.12 1014.94 1015.82 1016.73 1017.64 1018.53 1019.38 1020.15 1020.84 1021.42 1021.90 1022.29 1022.58 1022.80 1022.95 1023.07 1023.17 1023.26 1023.36 1023.47 1023.59 1023.71 1023.84 1023.97 1024.09 1024.20 1024.31 1024.42 1024.52 1024.64 1024.76 1024.88 1024.99
1012.04 1012.16 1012.24 1012.31 1012.39 1012.51 1012.70 1012.99 1013.40 1013.92 1014.56 1015.30 1016.12 1016.98 1017.86 1018.72 1019.54 1020.30 1020.96 1021.53 1022.00 1022.37 1022.65 1022.86 1023.01 1023.14 1023.24 1023.35 1023.46 1023.59 1023.73 1023.88 1024.02 1024.16 1024.28 1024.39 1024.48 1024.57 1024.66 1024.76 1024.87 1024.99 1025.12 1025.25
1012.61 1012.82 1012.98 1013.12 1013.27 1013.44 1013.69 1014.02 1014.47 1015.02 1015.69 1016.45 1017.27 1018.13 1018.98 1019.80 1020.55 1021.22 1021.78 1022.24 1022.59 1022.85 1023.04 1023.18 1023.29 1023.38 1023.48 1023.60 1023.74 1023.90 1024.07 1024.24 1024.39 1024.52 1024.63 1024.71 1024.78 1024.83 1024.89 1024.96 1025.06 1025.17 1025.30 1025.43
1013.06 1013.32 1013.54 1013.74 1013.94 1014.17 1014.46 1014.84 1015.33 1015.92 1016.62 1017.41 1018.25 1019.10 1019.94 1020.72 1021.42 1022.02 1022.50 1022.87 1023.14 1023.33 1023.45 1023.54 1023.62 1023.70 1023.81 1023.95 1024.11 1024.29 1024.48 1024.65 1024.80 1024.91 1024.98 1025.02 1025.04 1025.05 1025.06 1025.10 1025.17 1025.27 1025.39 1025.52
1013.38 1013.66 1013.92 1014.15 1014.39 1014.65 1014.98 1015.40 1015.92 1016.56 1017.29 1018.10 1018.95 1019.82 1020.64 1021.41 1022.07 1022.62 1023.06 1023.37 1023.59 1023.73 1023.82 1023.89 1023.96 1024.06 1024.18 1024.34 1024.52 1024.71 1024.90 1025.06 1025.19 1025.26 1025.29 1025.27 1025.23 1025.19 1025.16 1025.16 1025.20 1025.28 1025.40 1025.53
1013.58 1013.88 1014.14 1014.39 1014.65 1014.94 1015.29 1015.74 1016.28 1016.94 1017.69 1018.52 1019.38 1020.25 1021.07 1021.82 1022.47 1023.00 1023.41 1023.70 1023.90 1024.03 1024.12 1024.19 1024.28 1024.40 1024.54 1024.72 1024.91 1025.10 1025.28 1025.41 1025.50 1025.53 1025.50 1025.44 1025.35 1025.26 1025.19 1025.16 1025.18 1025.26 1025.38 1025.51
1013.71 1014.00 1014.27 1014.53 1014.80 1015.10 1015.47 1015.93 1016.50 1017.16 1017.92 1018.75 1019.61 1020.47 1021.28 1022.02 1022.65 1023.17 1023.57 1023.86 1024.06 1024.20 1024.31 1024.41 1024.53 1024.66 1024.83 1025.02 1025.21 1025.39 1025.55 1025.65 1025.70 1025.68 1025.61 1025.50 1025.38 1025.27 1025.19 1025.15 1025.18 1025.26 1025.39 1025.54
1013.79 1014.09 1014.37 1014.64 1014.93 1015.25 1015.64 1016.11 1016.68 1017.34 1018.10 1018.91 1019.75 1020.58 1021.37 1022.08 1022.69 1023.20 1023.59 1023.89 1024.10 1024.27 1024.40 1024.53 1024.67 1024.83 1025.01 1025.20 1025.39 1025.55 1025.68 1025.75 1025.76 1025.71 1025.62 1025.50 1025.37 1025.26 1025.19 1025.18 1025.24 1025.35 1025.50 1025.66
1013.86 1014.18 1014.49 1014.79 1015.10 1015.46 1015.87 1016.35 1016.93 1017.58 1018.32 1019.10 1019.90 1020.69 1021.44 1022.11 1022.69 1023.17 1023.56 1023.85 1024.08 1024.26 1024.42 1024.57 1024.73 1024.90 1025.09 1025.27 1025.44 1025.58 1025.67 1025.72 1025.70 1025.64 1025.54 1025.43 1025.33 1025.26 1025.24 1025.28 1025.38 1025.53 1025.71 1025.90
1013.92 1014.28 1014.64 1015.00 1015.37 1015.77 1016.22 1016.73 1017.31 1017.95 1018.66 1019.40 1020.15 1020.88 1021.57 1022.19 1022.72 1023.17 1023.53 1023.82 1024.04 1024.23 1024.40 1024.57 1024.74 1024.91 1025.09 1025.25 1025.40 1025.51 1025.57 1025.59 1025.57 1025.51 1025.43 1025.35 1025.30 1025.29 1025.34 1025.45 1025.61 1025.81 1026.02 1026.22
1013.96 1014.39 1014.83 1015.26 1015.70 1016.17 1016.67 1017.22 1017.82 1018.46 1019.13 1019.82 1020.51 1021.18 1021.80 1022.35 1022.83 1023.24 1023.57 1023.83 1024.05 1024.24 1024.41 1024.57 1024.74 1024.90 1025.06 1025.20 1025.31 1025.39 1025.43 1025.43 1025.40 1025.35 1025.30 1025.27 1025.29 1025.35 1025.47 1025.65 1025.88 1026.12 1026.36 1026.56
1013.98 1014.50 1015.02 1015.54 1016.08 1016.63 1017.20 1017.79 1018.41 1019.04 1019.69 1020.34 1020.97 1021.57 1022.12 1022.61 1023.03 1023.39 1023.68 1023.92 1024.13 1024.30 1024.47 1024.62 1024.78 1024.92 1025.05 1025.15 1025.23 1025.27 1025.29 1025.27 1025.24 1025.21 1025.19 1025.21 1025.29 1025.42 1025.61 1025.85 1026.12 1026.40 1026.64 1026.83
1013.97 1014.57 1015.19 1015.81 1016.45 1017.08 1017.72 1018.36 1019.00 1019.64 1020.27 1020.88 1021.46 1022.00 1022.48 1022.91 1023.28 1023.59 1023.86 1024.08 1024.27 1024.44 1024.59 1024.73 1024.86 1024.98 1025.08 1025.14 1025.19 1025.20 1025.18 1025.15 1025.11 1025.09 1025.11 1025.17 1025.29 1025.47 1025.71 1025.99 1026.29 1026.57 1026.81 1026.97
1013.93 1014.61 1015.31 1016.03 1016.76 1017.47 1018.17 1018.86 1019.53 1020.17 1020.78 1021.36 1021.90 1022.38 1022.82 1023.21 1023.54 1023.82 1024.06 1024.26 1024.45 1024.61 1024.75 1024.88 1024.99 1025.08 1025.15 1025.18 1025.19 1025.16 1025.12 1025.07 1025.03 1025.01 1025.04 1025.13 1025.28 1025.49 1025.76 1026.05 1026.35 1026.62 1026.83 1026.95
1013.86 1014.61 1015.39 1016.19 1016.99 1017.77 1018.53 1019.25 1019.93 1020.58 1021.18 1021.73 1022.23 1022.69 1023.09 1023.44 1023.75 1024.02 1024.25 1024.45 1024.63 1024.79 1024.93 1025.05 1025.14 1025.21 1025.24 1025.24 1025.21 1025.16 1025.09 1025.02 1024.97 1024.96 1024.99 1025.09 1025.25 1025.47 1025.74 1026.03 1026.31 1026.55 1026.73 1026.81
1013.78 1014.59 1015.44 1016.30 1017.15 1017.98 1018.77 1019.51 1020.20 1020.84 1021.43 1021.97 1022.45 1022.88 1023.26 1023.60 1023.90 1024.16 1024.39 1024.60 1024.78 1024.94 1025.08 1025.19 1025.26 1025.31 1025.32 1025.29 1025.24 1025.16 1025.07 1024.98 1024.93 1024.91 1024.95 1025.05 1025.21 1025.42 1025.68 1025.95 1026.20 1026.41 1026.55 1026.59
1013.72 1014.58 1015.47 1016.38 1017.26 1018.11 1018.92 1019.66 1020.35 1020.98 1021.55 1022.07 1022.54 1022.96 1023.34 1023.67 1023.97 1024.24 1024.48 1024.70 1024.89 1025.05 1025.18 1025.28 1025.34 1025.37 1025.36 1025.31 1025.23 1025.13 1025.03 1024.94 1024.88 1024.86 1024.90 1025.00 1025.16 1025.37 1025.60 1025.85 1026.07 1026.25 1026.36 1026.37
1013.69 1014.59 1015.52 1016.44 1017.34 1018.20 1019.00 1019.74 1020.41 1021.03 1021.58 1022.09 1022.55 1022.96 1023.34 1023.68 1023.99 1024.27 1024.53 1024.75 1024.94 1025.10 1025.23 1025.32 1025.37 1025.38 1025.34 1025.28 1025.19 1025.08 1024.98 1024.89 1024.83 1024.82 1024.86 1024.97 1025.12 1025.32 1025.55 1025.77 1025.97 1026.13 1026.22 1026.22
1013.71 1014.64 1015.58 1016.52 1017.42 1018.26 1019.04 1019.76 1020.41 1021.01 1021.55 1022.05 1022.50 1022.92 1023.30 1023.66 1023.98 1024.27 1024.54 1024.77 1024.96 1025.12 1025.23 1025.31 1025.34 1025.33 1025.29 1025.21 1025.11 1025.00 1024.91 1024.83 1024.78 1024.79 1024.85 1024.96 1025.12 1025.32 1025.54 1025.75 1025.94 1026.08 1026.16 1026.17
1013.78 1014.73 1015.68 1016.61 1017.49 1018.31 1019.06 1019.75 1020.38 1020.96 1021.48 1021.97 1022.43 1022.86 1023.25 1023.62 1023.96 1024.26 1024.54 1024.77 1024.96 1025.11 1025.21 1025.27 1025.29 1025.26 1025.21 1025.13 1025.03 1024.93 1024.85 1024.79 1024.76 1024.79 1024.87 1024.99 1025.17 1025.37 1025.58 1025.79 1025.97 1026.11 1026.20 1026.21
1013.90 1014.85 1015.80 1016.70 1017.55 1018.34 1019.06 1019.71 1020.32 1020.87 1021.39 1021.88 1022.34 1022.78 1023.19 1023.58 1023.93 1024.25 1024.52 1024.75 1024.94 1025.08 1025.17 1025.22 1025.22 1025.19 1025.14 1025.06 1024.97 1024.89 1024.82 1024.79 1024.79 1024.84 1024.93 1025.08 1025.26 1025.46 1025.68 1025.89 1026.07 1026.21 1026.30 1026.33
1014.04 1014.99 1015.91 1016.78 1017.58 1018.33 1019.01 1019.63 1020.22 1020.76 1021.27 1021.76 1022.24 1022.69 1023.11 1023.51 1023.88 1024.21 1024.49 1024.72 1024.90 1025.04 1025.12 1025.16 1025.16 1025.14 1025.08 1025.02 1024.95 1024.89 1024.85 1024.84 1024.87 1024.94 1025.05 1025.21 1025.39 1025.60 1025.81 1026.02 1026.20 1026.34 1026.44 1026.48
1014.20 1015.11 1015.99 1016.81 1017.57 1018.27 1018.91 1019.50 1020.06 1020.59 1021.10 1021.60 1022.08 1022.55 1022.99 1023.41 1023.78 1024.12 1024.40 1024.64 1024.82 1024.95 1025.04 1025.09 1025.10 1025.08 1025.05 1025.01 1024.97 1024.94 1024.94 1024.95 1025.00 1025.09 1025.22 1025.38 1025.56 1025.76 1025.96 1026.16 1026.34 1026.48 1026.58 1026.64
1014.34 1015.21 1016.03 1016.79 1017.49 1018.14 1018.74 1019.30 1019.84 1020.37 1020.88 1021.38 1021.87 1022.35 1022.81 1023.23 1023.62 1023.96 1024.25 1024.48 1024.67 1024.81 1024.91 1024.97 1025.01 1025.02 1025.02 1025.02 1025.02 1025.03 1025.06 1025.10 1025.18 1025.28 1025.41 1025.56 1025.74 1025.93 1026.12 1026.30 1026.47 1026.61 1026.72 1026.79
1014.45 1015.25 1016.01 1016.71 1017.35 1017.95 1018.51 1019.05 1019.57 1020.09 1020.60 1021.11 1021.60 1022.09 1022.55 1022.98 1023.36 1023.70 1023.99 1024.23 1024.43 1024.58 1024.70 1024.79 1024.86 1024.91 1024.96 1025.01 1025.05 1025.11 1025.18 1025.26 1025.35 1025.47 1025.60 1025.75 1025.91 1026.08 1026.26 1026.43 1026.59 1026.73 1026.85 1026.94
1014.50 1015.24 1015.93 1016.56 1017.15 1017.71 1018.24 1018.75 1019.26 1019.77 1020.28 1020.79 1021.29 1021.77 1022.22 1022.64 1023.02 1023.36 1023.64 1023.88 1024.09 1024.25 1024.40 1024.52 1024.63 1024.74 1024.84 1024.94 1025.04 1025.15 1025.26 1025.38 1025.50 1025.62 1025.76 1025.91 1026.06 1026.22 1026.38 1026.54 1026.69 1026.84 1026.97 1027.08
1014.48 1015.15 1015.78 1016.36 1016.91 1017.43 1017.94 1018.44 1018.95 1019.45 1019.96 1020.46 1020.95 1021.42 1021.86 1022.26 1022.62 1022.94 1023.22 1023.45 1023.66 1023.84 1024.01 1024.17 1024.32 1024.48 1024.63 1024.79 1024.95 1025.11 1025.27 1025.42 1025.57 1025.72 1025.86 1026.01 1026.15 1026.30 1026.46 1026.61 1026.77 1026.93 1027.08 1027.22
Thickness
5664 5666 5667 5663 5664 5669 5669 5670 5668 5660 5646 5633 5626 5619 5611 5605 5598 5592 5587 5583 5579 5575 5570 5567 5566 5564 5562 5560 5558 5556 5553 5550 5545 5541 5538 5534 5531 5527 5524 5522 5519 5516 5514 5510
5654 5658 5658 5651 5651 5653 5651 5652 5650 5643 5627 5624 5616 5608 5600 5594 5589 5582 5576 5570 5566 5561 5558 5555 5554 5552 5550 5547 5545 5542 5540 5536 5532 5529 5526 5523 5519 5515 5512 5509 5506 5504 5501 5497
5649 5652 5653 5637 5635 5639 5636 5635 5635 5627 5616 5609 5601 5595 5589 5584 5579 5573 5566 5559 5553 5549 5545 5543 5541 5539 5537 5535 5532 5529 5527 5525 5522 5519 5515 5513 5509 5505 5502 5498 5494 5491 5488 5484
5652 5644 5630 5625 5633 5632 5627 5621 5621 5614 5606 5598 5589 5582 5578 5574 5568 5561 5554 5548 5542 5538 5534 5531 5529 5527 5525 5523 5522 5519 5517 5514 5511 5508 5505 5502 5499 5495 5491 5487 5483 5479 5475 5471
5649 5641 5626 5624 5628 5628 5621 5610 5608 5601 5592 5585 5578 5572 5562 5559 5555 5549 5543 5538 5532 5528 5524 5521 5519 5517 5516 5514 5512 5510 5507 5504 5501 5498 5495 5492 5489 5485 5481 5477 5473 5469 5464 5458
5644 5634 5623 5620 5625 5625 5619 5602 5600 5595 5586 5581 5578 5570 5554 5547 5543 5538 5533 5528 5523 5519 5516 5514 5511 5509 5508 5506 5504 5501 5498 5495 5491 5489 5486 5483 5479 5475 5471 5467 5463 5460 5454 5448
5638 5631 5624 5620 5621 5618 5607 5599 5596 5590 5583 5578 5572 5565 5549 5540 5534 5529 5524 5519 5516 5513 5510 5506 5504 5502 5500 5498 5496 5493 5490 5487 5483 5480 5477 5474 5470 5466 5462 5459 5454 5450 5446 5441
5636 5629 5617 5615 5619 5611 5601 5598 5592 5584 5577 5569 5560 5550 5540 5533 5526 5521 5517 5512 5509 5506 5503 5499 5498 5496 5494 5491 5487 5485 5482 5479 5476 5473 5471 5468 5464 5460 5456 5452 5450 5446 5441 5437
5631 5620 5612 5611 5607 5602 5600 5592 5584 5577 5569 5560 5550 5541 5533 5525 5519 5515 5511 5507 5504 5501 5497 5494 5492 5490 5487 5483 5481 5479 5476 5473 5470 5467 5464 5462 5459 5456 5453 5449 5447 5444 5439 5434
5624 5613 5608 5604 5601 5597 5594 5586 5578 5570 5562 5555 5545 5536 5528 5521 5515 5511 5507 5503 5499 5497 5493 5489 5486 5483 5480 5477 5475 5473 5471 5468 5466 5464 5461 5458 5454 5453 5450 5446 5442 5439 5434 5430
5622 5610 5604 5599 5596 5591 5585 5579 5571 5563 5556 5549 5540 5532 5524 5519 5513 5508 5504 5499 5496 5492 5488 5484 5480 5477 5475 5472 5470 5468 5466 5464 5463 5462 5459 5454 5451 5445 5441 5436 5430 5427 5427 5424
5630 5620 5614 5599 5593 5587 5579 5572 5564 5557 5549 5542 5536 5529 5522 5516 5510 5505 5500 5495 5491 5487 5483 5479 5476 5473 5470 5468 5466 5464 5463 5462 5462 5460 5456 5454 5450 5443 5431 5428 5423 5419 5416 5413
5633 5625 5615 5600 5591 5584 5576 5567 5560 5553 5546 5539 5532 5526 5519 5513 5507 5501 5496 5492 5487 5483 5479 5475 5472 5469 5467 5464 5462 5461 5459 5458 5459 5457 5454 5452 5448 5444 5438 5428 5422 5419 5416 5414
5626 5616 5602 5594 5586 5579 5571 5563 5556 5549 5542 5535 5528 5522 5516 5509 5503 5498 5493 5488 5484 5480 5476 5472 5469 5466 5463 5461 5459 5457 5457 5454 5453 5453 5451 5449 5446 5443 5440 5437 5433 5428 5421 5417
5622 5617 5606 5594 5583 5574 5566 5559 5551 5544 5537 5531 5525 5519 5512 5506 5500 5495 5490 5485 5480 5476 5473 5470 5466 5463 5460 5458 5456 5455 5455 5454 5452 5451 5449 5447 5444 5443 5440 5437 5435 5432 5429 5424
5620 5612 5601 5591 5581 5571 5564 5557 5551 5543 5536 5529 5522 5516 5510 5504 5498 5493 5487 5482 5478 5474 5470 5466 5463 5460 5458 5456 5454 5453 5452 5444 5446 5449 5448 5446 5444 5442 5440 5438 5435 5433 5432 5429
5618 5607 5598 5588 5580 5572 5565 5558 5550 5542 5535 5528 5521 5515 5508 5502 5497 5491 5486 5481 5475 5471 5467 5463 5461 5458 5457 5456 5455 5457 5455 5449 5441 5447 5447 5445 5444 5442 5440 5438 5436 5434 5432 5426
5623 5613 5603 5593 5583 5574 5565 5557 5549 5542 5534 5528 5520 5514 5508 5502 5497 5491 5486 5480 5474 5470 5466 5463 5459 5458 5457 5456 5455 5456 5456 5455 5452 5450 5446 5445 5443 5441 5440 5438 5436 5434 5433 5431
5621 5611 5602 5592 5584 5575 5566 5557 5549 5542 5535 5528 5521 5515 5509 5504 5498 5492 5486 5481 5477 5473 5467 5463 5455 5457 5458 5456 5453 5456 5457 5455 5453 5450 5447 5440 5443 5442 5440 5438 5436 5435 5434 5433
5618 5609 5600 5591 5582 5574 5565 5557 5549 5542 5535 5528 5522 5516 5510 5505 5499 5494 5489 5485 5481 5476 5468 5463 5461 5461 5459 5458 5454 5461 5460 5457 5455 5452 5449 5447 5445 5442 5440 5438 5437 5436 5435 5434
5615 5607 5598 5589 5580 5572 5564 5556 5548 5541 5535 5529 5523 5518 5512 5506 5502 5497 5493 5490 5480 5475 5470 5464 5465 5464 5463 5460 5457 5463 5462 5459 5457 5454 5451 5449 5446 5443 5441 5439 5438 5436 5435 5434
5613 5604 5596 5587 5579 5570 5563 5555 5548 5541 5535 5530 5525 5520 5514 5508 5504 5499 5495 5491 5484 5475 5476 5476 5472 5464 5463 5460 5467 5466 5463 5460 5458 5455 5451 5449 5446 5444 5442 5440 5438 5437 5436 5434
5611 5602 5594 5586 5578 5569 5561 5555 5548 5542 5536 5531 5527 5522 5518 5514 5511 5506 5500 5493 5489 5480 5480 5478 5468 5464 5462 5467 5469 5467 5464 5461 5459 5456 5453 5449 5447 5445 5443 5441 5439 5437 5436 5435
5608 5600 5592 5584 5576 5568 5560 5555 5549 5543 5538 5534 5530 5524 5520 5516 5512 5510 5503 5491 5487 5483 5484 5475 5470 5467 5465 5473 5472 5469 5466 5462 5460 5457 5454 5452 5449 5446 5444 5442 5440 5439 5437 5435
5605 5597 5590 5582 5574 5568 5561 5555 5548 5543 5539 5536 5532 5526 5524 5521 5517 5512 5506 5499 5490 5487 5488 5479 5473 5472 5474 5477 5474 5472 5469 5465 5462 5459 5456 5453 5452 5449 5446 5444 5442 5440 5439 5437
5601 5595 5588 5582 5577 5571 5564 5558 5552 5547 5543 5538 5535 5530 5527 5523 5518 5513 5507 5503 5498 5491 5493 5490 5484 5479 5482 5480 5476 5473 5469 5464 5462 5460 5458 5456 5454 5451 5449 5446 5443 5442 5440 5438
5597 5592 5584 5580 5575 5571 5566 5561 5556 5551 5547 5542 5538 5534 5529 5525 5521 5517 5513 5509 5505 5501 5499 5496 5493 5490 5487 5483 5479 5475 5472 5469 5466 5463 5461 5459 5456 5454 5452 5448 5447 5445 5442 5441